Time,TemperatureF,DewpointF,PressureIn,WindDirection,WindDirectionDegrees,WindSpeedMPH,WindSpeedGustMPH,Humidity,HourlyPrecipIn,Conditions,Clouds,dailyrainin,SoftwareType,DateUTC
2013-02-04 00:00:00,19.8,13.5,30.02,WNW,286,4.0,7.0,76,0.00,,---,0.00,VWS V14.01,2013-02-04 05:00:00,
2013-02-04 00:01:00,19.8,13.5,30.02,NNW,335,8.0,8.0,76,0.00,,---,0.00,VWS V14.01,2013-02-04 05:01:00,
2013-02-04 00:02:00,19.7,13.4,30.02,NNW,333,4.0,10.0,76,0.00,,---,0.00,VWS V14.01,2013-02-04 05:02:00,
2013-02-04 00:03:00,19.7,13.4,30.01,SW,226,5.0,14.0,76,0.00,,---,0.00,VWS V14.01,2013-02-04 05:03:00,
2013-02-04 00:08:00,19.7,13.4,30.02,NE,35,3.0,7.0,76,0.00,,---,0.00,VWS V14.01,2013-02-04 05:08:00,
2013-02-04 00:13:00,19.7,13.4,30.02,NW,314,8.0,12.0,76,0.00,,---,0.00,VWS V14.01,2013-02-04 05:13:00,
2013-02-04 00:18:00,19.7,13.4,30.03,North,355,9.0,11.0,76,0.00,,---,0.00,VWS V14.01,2013-02-04 05:18:00,
2013-02-04 00:23:00,19.7,13.4,30.03,West,275,10.0,11.0,76,0.00,,---,0.00,VWS V14.01,2013-02-04 05:23:00,
2013-02-04 00:28:00,19.7,13.4,30.03,North,5,4.0,11.0,76,0.00,,---,0.00,VWS V14.01,2013-02-04 05:28:00,
2013-02-04 00:33:00,19.7,13.4,30.03,NW,310,4.0,6.0,76,0.00,,---,0.00,VWS V14.01,2013-02-04 05:33:00,
2013-02-04 00:38:00,19.7,13.4,30.03,NW,307,4.0,11.0,76,0.00,,---,0.00,VWS V14.01,2013-02-04 05:38:00,
2013-02-04 00:43:00,19.7,13.4,30.03,West,276,6.0,6.0,76,0.00,,---,0.00,VWS V14.01,2013-02-04 05:43:00,
2013-02-04 00:48:00,19.7,13.7,30.02,NNW,344,6.0,9.0,77,0.00,,---,0.00,VWS V14.01,2013-02-04 05:48:00,
2013-02-04 00:53:00,19.7,13.4,30.02,NNW,346,10.0,10.0,76,0.00,,---,0.00,VWS V14.01,2013-02-04 05:53:00,
2013-02-04 00:58:00,19.7,13.4,30.03,WNW,288,4.0,8.0,76,0.00,,---,0.00,VWS V14.01,2013-02-04 05:58:00,
2013-02-04 01:03:00,19.7,13.7,30.03,NNW,348,6.0,9.0,77,0.00,,---,0.00,VWS V14.01,2013-02-04 06:03:00,
2013-02-04 01:08:00,19.7,13.7,30.03,NNW,327,7.0,8.0,77,0.00,,---,0.00,VWS V14.01,2013-02-04 06:08:00,
2013-02-04 01:13:00,19.7,13.7,30.03,SW,234,11.0,17.0,77,0.00,,---,0.00,VWS V14.01,2013-02-04 06:13:00,
2013-02-04 01:18:00,19.7,13.7,30.02,WSW,257,7.0,10.0,77,0.00,,---,0.00,VWS V14.01,2013-02-04 06:18:00,
2013-02-04 01:23:00,19.7,13.7,30.03,West,277,2.0,5.0,77,0.00,,---,0.00,VWS V14.01,2013-02-04 06:23:00,
2013-02-04 01:28:00,19.6,13.6,30.02,West,273,9.0,17.0,77,0.00,,---,0.00,VWS V14.01,2013-02-04 06:28:00,
2013-02-04 01:33:00,19.7,13.7,30.02,NNW,345,7.0,7.0,77,0.00,,---,0.00,VWS V14.01,2013-02-04 06:33:00,
2013-02-04 01:38:00,19.7,13.7,30.02,WSW,252,8.0,13.0,77,0.00,,---,0.00,VWS V14.01,2013-02-04 06:38:00,
2013-02-04 01:43:00,19.6,13.6,30.03,WSW,258,5.0,10.0,77,0.00,,---,0.00,VWS V14.01,2013-02-04 06:43:00,
2013-02-04 01:48:00,19.7,13.7,30.02,WNW,299,5.0,9.0,77,0.00,,---,0.00,VWS V14.01,2013-02-04 06:48:00,
2013-02-04 01:53:00,20.2,14.2,30.02,West,272,5.0,7.0,77,0.00,,---,0.00,VWS V14.01,2013-02-04 06:53:00,
2013-02-04 01:58:00,20.1,13.8,30.02,NW,326,11.0,17.0,76,0.00,,---,0.00,VWS V14.01,2013-02-04 06:58:00,
2013-02-04 02:03:00,19.9,13.6,30.02,NNW,330,7.0,19.0,76,0.00,,---,0.00,VWS V14.01,2013-02-04 07:03:00,
2013-02-04 02:08:00,19.9,13.9,30.02,West,271,10.0,10.0,77,0.00,,---,0.00,VWS V14.01,2013-02-04 07:08:00,
2013-02-04 02:13:00,20.0,14.0,30.03,SW,214,14.0,14.0,77,0.00,,---,0.00,VWS V14.01,2013-02-04 07:13:00,
2013-02-04 02:18:00,20.0,14.0,30.03,NW,313,10.0,12.0,77,0.00,,---,0.00,VWS V14.01,2013-02-04 07:18:00,
2013-02-04 02:23:00,20.0,13.7,30.03,WSW,257,16.0,20.0,76,0.00,,---,0.00,VWS V14.01,2013-02-04 07:23:00,
2013-02-04 02:28:00,20.0,13.7,30.03,WNW,290,4.0,10.0,76,0.00,,---,0.00,VWS V14.01,2013-02-04 07:28:00,
2013-02-04 02:33:00,20.0,13.4,30.03,WNW,291,5.0,11.0,75,0.00,,---,0.00,VWS V14.01,2013-02-04 07:33:00,
2013-02-04 02:38:00,19.9,13.6,30.03,NNW,328,11.0,13.0,76,0.00,,---,0.00,VWS V14.01,2013-02-04 07:38:00,
2013-02-04 02:43:00,19.9,13.6,30.03,NW,321,5.0,6.0,76,0.00,,---,0.00,VWS V14.01,2013-02-04 07:43:00,
2013-02-04 02:48:00,20.0,14.0,30.04,WNW,302,4.0,10.0,77,0.00,,---,0.00,VWS V14.01,2013-02-04 07:48:00,
2013-02-04 02:53:00,19.9,13.9,30.04,NW,314,4.0,8.0,77,0.00,,---,0.00,VWS V14.01,2013-02-04 07:53:00,
2013-02-04 02:58:00,19.9,14.2,30.03,West,263,10.0,13.0,78,0.00,,---,0.00,VWS V14.01,2013-02-04 07:58:00,
2013-02-04 03:03:00,19.8,13.8,30.04,NW,314,8.0,9.0,77,0.00,,---,0.00,VWS V14.01,2013-02-04 08:03:00,
2013-02-04 03:08:00,19.8,13.2,30.04,NNW,337,21.0,21.0,75,0.00,,---,0.00,VWS V14.01,2013-02-04 08:08:00,
2013-02-04 03:13:00,19.8,12.9,30.04,NNW,332,7.0,8.0,74,0.00,,---,0.00,VWS V14.01,2013-02-04 08:13:00,
2013-02-04 03:18:00,19.8,12.6,30.05,NW,304,10.0,16.0,73,0.00,,---,0.00,VWS V14.01,2013-02-04 08:18:00,
2013-02-04 03:23:00,19.8,12.9,30.04,WSW,246,12.0,14.0,74,0.00,,---,0.00,VWS V14.01,2013-02-04 08:23:00,
2013-02-04 03:28:00,19.8,12.6,30.04,West,264,6.0,6.0,73,0.00,,---,0.00,VWS V14.01,2013-02-04 08:28:00,
2013-02-04 03:33:00,19.8,12.6,30.03,WNW,286,2.0,10.0,73,0.00,,---,0.00,VWS V14.01,2013-02-04 08:33:00,
2013-02-04 03:38:00,19.8,12.6,30.04,NW,325,6.0,11.0,73,0.00,,---,0.00,VWS V14.01,2013-02-04 08:38:00,
2013-02-04 03:43:00,19.8,12.6,30.03,West,277,11.0,22.0,73,0.00,,---,0.00,VWS V14.01,2013-02-04 08:43:00,
2013-02-04 03:48:00,19.9,12.7,30.03,NW,316,4.0,13.0,73,0.00,,---,0.00,VWS V14.01,2013-02-04 08:48:00,
2013-02-04 03:53:00,20.0,13.1,30.03,NW,325,12.0,14.0,74,0.00,,---,0.00,VWS V14.01,2013-02-04 08:53:00,
2013-02-04 03:58:00,20.0,13.4,30.03,WNW,286,7.0,10.0,75,0.00,,---,0.00,VWS V14.01,2013-02-04 08:58:00,
2013-02-04 04:03:00,20.0,13.4,30.03,West,278,7.0,8.0,75,0.00,,---,0.00,VWS V14.01,2013-02-04 09:03:00,
2013-02-04 04:08:00,20.1,13.5,30.03,WSW,255,6.0,9.0,75,0.00,,---,0.00,VWS V14.01,2013-02-04 09:08:00,
2013-02-04 04:13:00,20.1,13.5,30.03,West,281,11.0,11.0,75,0.00,,---,0.00,VWS V14.01,2013-02-04 09:13:00,
2013-02-04 04:18:00,20.2,13.9,30.03,NW,315,6.0,8.0,76,0.00,,---,0.00,VWS V14.01,2013-02-04 09:18:00,
2013-02-04 04:23:00,20.2,14.2,30.03,WNW,297,8.0,8.0,77,0.00,,---,0.00,VWS V14.01,2013-02-04 09:23:00,
2013-02-04 04:28:00,20.2,14.2,30.04,WNW,284,10.0,10.0,77,0.00,,---,0.00,VWS V14.01,2013-02-04 09:28:00,
2013-02-04 04:33:00,20.2,14.2,30.03,WNW,291,4.0,10.0,77,0.00,,---,0.00,VWS V14.01,2013-02-04 09:33:00,
2013-02-04 04:38:00,20.3,14.6,30.04,NNW,327,6.0,6.0,78,0.00,,---,0.00,VWS V14.01,2013-02-04 09:38:00,
2013-02-04 04:43:00,20.3,14.6,30.03,NW,305,4.0,6.0,78,0.00,,---,0.00,VWS V14.01,2013-02-04 09:43:00,
2013-02-04 04:48:00,20.4,14.4,30.04,West,278,4.0,6.0,77,0.00,,---,0.00,VWS V14.01,2013-02-04 09:48:00,
2013-02-04 04:53:00,20.5,14.4,30.04,West,270,3.0,6.0,77,0.00,,---,0.00,VWS V14.01,2013-02-04 09:53:00,
2013-02-04 04:58:00,20.5,14.4,30.04,NW,311,4.0,8.0,77,0.00,,---,0.00,VWS V14.01,2013-02-04 09:58:00,
2013-02-04 05:03:00,20.6,13.9,30.05,WSW,255,9.0,11.0,75,0.00,,---,0.00,VWS V14.01,2013-02-04 10:03:00,
2013-02-04 05:08:00,20.6,13.6,30.05,NW,304,13.0,14.0,74,0.00,,---,0.00,VWS V14.01,2013-02-04 10:08:00,
2013-02-04 05:13:00,20.7,13.7,30.04,NNW,345,5.0,11.0,74,0.00,,---,0.00,VWS V14.01,2013-02-04 10:13:00,
2013-02-04 05:18:00,20.6,13.6,30.05,WNW,293,6.0,8.0,74,0.00,,---,0.00,VWS V14.01,2013-02-04 10:18:00,
2013-02-04 05:23:00,20.6,13.6,30.05,NW,306,7.0,11.0,74,0.00,,---,0.00,VWS V14.01,2013-02-04 10:23:00,
2013-02-04 05:28:00,20.6,13.6,30.05,West,271,12.0,21.0,74,0.00,,---,0.00,VWS V14.01,2013-02-04 10:28:00,
2013-02-04 05:33:00,20.6,13.6,30.05,NW,325,9.0,14.0,74,0.00,,---,0.00,VWS V14.01,2013-02-04 10:33:00,
2013-02-04 05:38:00,20.6,13.6,30.05,SW,224,4.0,10.0,74,0.00,,---,0.00,VWS V14.01,2013-02-04 10:38:00,
2013-02-04 05:43:00,20.5,13.5,30.05,NW,309,17.0,19.0,74,0.00,,---,0.00,VWS V14.01,2013-02-04 10:43:00,
2013-02-04 05:48:00,20.5,13.5,30.06,West,268,11.0,12.0,74,0.00,,---,0.00,VWS V14.01,2013-02-04 10:48:00,
2013-02-04 05:53:00,20.4,13.8,30.05,North,5,10.0,14.0,75,0.00,,---,0.00,VWS V14.01,2013-02-04 10:53:00,
2013-02-04 05:58:00,20.4,13.8,30.06,West,265,8.0,10.0,75,0.00,,---,0.00,VWS V14.01,2013-02-04 10:58:00,
2013-02-04 06:03:00,20.4,13.8,30.07,NNW,344,5.0,6.0,75,0.00,,---,0.00,VWS V14.01,2013-02-04 11:03:00,
2013-02-04 06:08:00,20.4,13.8,30.07,NW,311,8.0,16.0,75,0.00,,---,0.00,VWS V14.01,2013-02-04 11:08:00,
2013-02-04 06:13:00,20.4,13.8,30.07,North,5,3.0,9.0,75,0.00,,---,0.00,VWS V14.01,2013-02-04 11:13:00,
2013-02-04 06:18:00,20.3,13.7,30.07,WNW,297,7.0,8.0,75,0.00,,---,0.00,VWS V14.01,2013-02-04 11:18:00,
2013-02-04 06:23:00,20.3,13.7,30.07,WNW,302,8.0,8.0,75,0.00,,---,0.00,VWS V14.01,2013-02-04 11:23:00,
2013-02-04 06:28:00,20.3,13.7,30.07,WNW,298,4.0,7.0,75,0.00,,---,0.00,VWS V14.01,2013-02-04 11:28:00,
2013-02-04 06:33:00,20.3,13.7,30.08,NW,305,10.0,12.0,75,0.00,,---,0.00,VWS V14.01,2013-02-04 11:33:00,
2013-02-04 06:38:00,20.2,13.6,30.07,WNW,303,8.0,9.0,75,0.00,,---,0.00,VWS V14.01,2013-02-04 11:38:00,
2013-02-04 06:43:00,20.2,13.6,30.07,NW,306,4.0,7.0,75,0.00,,---,0.00,VWS V14.01,2013-02-04 11:43:00,
2013-02-04 06:48:00,20.2,13.9,30.08,West,278,7.0,13.0,76,0.00,,---,0.00,VWS V14.01,2013-02-04 11:48:00,
2013-02-04 06:53:00,20.1,13.5,30.08,WSW,254,10.0,10.0,75,0.00,,---,0.00,VWS V14.01,2013-02-04 11:53:00,
2013-02-04 06:58:00,20.1,13.5,30.08,NNW,344,6.0,8.0,75,0.00,,---,0.00,VWS V14.01,2013-02-04 11:58:00,
2013-02-04 07:03:00,20.0,13.4,30.08,NW,317,8.0,12.0,75,0.00,,---,0.00,VWS V14.01,2013-02-04 12:03:00,
2013-02-04 07:08:00,20.0,13.4,30.08,WNW,287,8.0,14.0,75,0.00,,---,0.00,VWS V14.01,2013-02-04 12:08:00,
2013-02-04 07:13:00,20.0,13.7,30.08,WSW,250,8.0,13.0,76,0.00,,---,0.00,VWS V14.01,2013-02-04 12:13:00,
2013-02-04 07:18:00,20.0,13.7,30.08,West,275,12.0,12.0,76,0.00,,---,0.00,VWS V14.01,2013-02-04 12:18:00,
2013-02-04 07:23:00,20.0,13.4,30.08,WNW,285,7.0,7.0,75,0.00,,---,0.00,VWS V14.01,2013-02-04 12:23:00,
2013-02-04 07:28:00,19.9,13.6,30.08,West,269,6.0,7.0,76,0.00,,---,0.00,VWS V14.01,2013-02-04 12:28:00,
2013-02-04 07:33:00,19.9,13.6,30.08,West,275,9.0,9.0,76,0.00,,---,0.00,VWS V14.01,2013-02-04 12:33:00,
2013-02-04 07:38:00,19.8,13.5,30.08,NW,304,5.0,5.0,76,0.00,,---,0.00,VWS V14.01,2013-02-04 12:38:00,
2013-02-04 07:43:00,19.8,13.5,30.08,WNW,297,10.0,10.0,76,0.00,,---,0.00,VWS V14.01,2013-02-04 12:43:00,
2013-02-04 07:48:00,19.8,13.2,30.08,NW,324,8.0,9.0,75,0.00,,---,0.00,VWS V14.01,2013-02-04 12:48:00,
2013-02-04 07:53:00,19.8,13.5,30.08,WNW,294,5.0,6.0,76,0.00,,---,0.00,VWS V14.01,2013-02-04 12:53:00,
2013-02-04 07:58:00,19.8,13.8,30.07,NW,305,5.0,6.0,77,0.00,,---,0.00,VWS V14.01,2013-02-04 12:58:00,
2013-02-04 08:03:00,19.9,13.6,30.07,NW,312,7.0,10.0,76,0.00,,---,0.00,VWS V14.01,2013-02-04 13:03:00,
2013-02-04 08:08:00,19.9,13.6,30.07,NNW,335,2.0,4.0,76,0.00,,---,0.00,VWS V14.01,2013-02-04 13:08:00,
2013-02-04 08:13:00,19.9,13.9,30.08,WNW,288,4.0,5.0,77,0.00,,---,0.00,VWS V14.01,2013-02-04 13:13:00,
2013-02-04 08:18:00,20.0,14.0,30.08,NW,314,5.0,6.0,77,0.00,,---,0.00,VWS V14.01,2013-02-04 13:18:00,
2013-02-04 08:23:00,20.1,14.1,30.08,NW,307,3.0,7.0,77,0.00,,---,0.00,VWS V14.01,2013-02-04 13:23:00,
2013-02-04 08:28:00,20.2,13.9,30.08,West,273,7.0,9.0,76,0.00,,---,0.00,VWS V14.01,2013-02-04 13:28:00,
2013-02-04 08:33:00,20.5,14.1,30.08,NNW,327,3.0,5.0,76,0.00,,---,0.00,VWS V14.01,2013-02-04 13:33:00,
2013-02-04 08:38:00,21.0,14.3,30.08,WNW,295,4.0,6.0,75,0.00,,---,0.00,VWS V14.01,2013-02-04 13:38:00,
2013-02-04 08:43:00,21.3,14.3,30.08,WNW,290,0.0,2.0,74,0.00,,---,0.00,VWS V14.01,2013-02-04 13:43:00,
2013-02-04 08:48:00,21.6,14.6,30.09,NW,309,2.0,2.0,74,0.00,,---,0.00,VWS V14.01,2013-02-04 13:48:00,
2013-02-04 08:53:00,22.0,14.7,30.09,SW,230,5.0,10.0,73,0.00,,---,0.00,VWS V14.01,2013-02-04 13:53:00,
2013-02-04 08:58:00,22.1,14.5,30.09,NNW,330,6.0,8.0,72,0.00,,---,0.00,VWS V14.01,2013-02-04 13:58:00,
2013-02-04 09:03:00,22.3,14.7,30.09,West,269,3.0,4.0,72,0.00,,---,0.00,VWS V14.01,2013-02-04 14:03:00,
2013-02-04 09:08:00,22.6,14.6,30.08,NW,306,3.0,4.0,71,0.00,,---,0.00,VWS V14.01,2013-02-04 14:08:00,
2013-02-04 09:13:00,22.6,14.6,30.08,NNE,17,1.0,2.0,71,0.00,,---,0.00,VWS V14.01,2013-02-04 14:13:00,
2013-02-04 09:18:00,22.7,14.4,30.09,WNW,293,5.0,5.0,70,0.00,,---,0.00,VWS V14.01,2013-02-04 14:18:00,
2013-02-04 09:23:00,22.8,14.2,30.08,NW,310,2.0,3.0,69,0.00,,---,0.00,VWS V14.01,2013-02-04 14:23:00,
2013-02-04 09:28:00,22.8,14.2,30.08,NW,311,3.0,4.0,69,0.00,,---,0.00,VWS V14.01,2013-02-04 14:28:00,
2013-02-04 09:33:00,23.0,14.4,30.09,West,281,1.0,3.0,69,0.00,,---,0.00,VWS V14.01,2013-02-04 14:33:00,
2013-02-04 09:38:00,23.2,14.6,30.08,WNW,293,4.0,5.0,69,0.00,,---,0.00,VWS V14.01,2013-02-04 14:38:00,
2013-02-04 09:43:00,23.4,14.4,30.08,WSW,244,5.0,6.0,68,0.00,,---,0.00,VWS V14.01,2013-02-04 14:43:00,
2013-02-04 09:48:00,23.6,14.6,30.08,WSW,240,2.0,4.0,68,0.00,,---,0.00,VWS V14.01,2013-02-04 14:48:00,
2013-02-04 09:53:00,23.8,14.5,30.08,WNW,300,4.0,4.0,67,0.00,,---,0.00,VWS V14.01,2013-02-04 14:53:00,
2013-02-04 09:58:00,24.0,14.6,30.08,West,279,6.0,6.0,67,0.00,,---,0.00,VWS V14.01,2013-02-04 14:58:00,
2013-02-04 10:03:00,24.2,14.5,30.08,NNW,328,3.0,4.0,66,0.00,,---,0.00,VWS V14.01,2013-02-04 15:03:00,
2013-02-04 10:08:00,24.4,15.4,30.08,WNW,292,3.0,4.0,68,0.00,,---,0.00,VWS V14.01,2013-02-04 15:08:00,
2013-02-04 10:13:00,24.9,15.2,30.08,WNW,290,6.0,6.0,66,0.00,,---,0.00,VWS V14.01,2013-02-04 15:13:00,
2013-02-04 10:18:00,25.0,14.6,30.08,WNW,295,6.0,6.0,64,0.00,,---,0.00,VWS V14.01,2013-02-04 15:18:00,
2013-02-04 10:23:00,25.2,15.1,30.08,WNW,295,8.0,8.0,65,0.00,,---,0.00,VWS V14.01,2013-02-04 15:23:00,
2013-02-04 10:28:00,25.4,14.9,30.08,SW,222,7.0,7.0,64,0.00,,---,0.00,VWS V14.01,2013-02-04 15:28:00,
2013-02-04 10:33:00,25.6,14.8,30.07,NW,321,6.0,7.0,63,0.00,,---,0.00,VWS V14.01,2013-02-04 15:33:00,
2013-02-04 10:38:00,25.6,14.8,30.06,West,272,5.0,6.0,63,0.00,,---,0.00,VWS V14.01,2013-02-04 15:38:00,
2013-02-04 10:43:00,25.7,14.5,30.07,NW,313,4.0,6.0,62,0.00,,---,0.00,VWS V14.01,2013-02-04 15:43:00,
2013-02-04 10:48:00,26.0,15.1,30.07,WNW,288,5.0,6.0,63,0.00,,---,0.00,VWS V14.01,2013-02-04 15:48:00,
2013-02-04 10:53:00,26.2,15.0,30.07,NW,326,2.0,3.0,62,0.00,,---,0.00,VWS V14.01,2013-02-04 15:53:00,
2013-02-04 10:58:00,26.3,15.4,30.06,West,277,3.0,3.0,63,0.00,,---,0.00,VWS V14.01,2013-02-04 15:58:00,
2013-02-04 11:02:00,26.9,16.4,30.05,West,265,3.0,3.0,64,0.00,,---,0.00,VWS V14.01,2013-02-04 16:02:00,
2013-02-04 11:07:00,27.1,15.4,30.05,NW,311,4.0,4.0,61,0.00,,---,0.00,VWS V14.01,2013-02-04 16:07:00,
2013-02-04 11:12:00,27.4,16.1,30.05,NW,306,8.0,8.0,62,0.00,,---,0.00,VWS V14.01,2013-02-04 16:12:00,
2013-02-04 11:17:00,27.4,15.4,30.05,NW,322,7.0,8.0,60,0.00,,---,0.00,VWS V14.01,2013-02-04 16:17:00,
2013-02-04 11:22:00,27.4,15.7,30.04,NW,319,6.0,6.0,61,0.00,,---,0.00,VWS V14.01,2013-02-04 16:22:00,
2013-02-04 11:27:00,27.7,16.0,30.05,WNW,296,11.0,11.0,61,0.00,,---,0.00,VWS V14.01,2013-02-04 16:27:00,
2013-02-04 11:32:00,27.9,15.8,30.05,West,259,6.0,6.0,60,0.00,,---,0.00,VWS V14.01,2013-02-04 16:32:00,
2013-02-04 11:37:00,28.5,16.8,30.05,WSW,238,3.0,3.0,61,0.00,,---,0.00,VWS V14.01,2013-02-04 16:37:00,
2013-02-04 11:42:00,29.0,17.2,30.05,NW,310,3.0,3.0,61,0.00,,---,0.00,VWS V14.01,2013-02-04 16:42:00,
2013-02-04 11:47:00,29.6,17.0,30.04,NW,304,4.0,4.0,59,0.00,,---,0.00,VWS V14.01,2013-02-04 16:47:00,
2013-02-04 11:52:00,29.8,17.6,30.04,SSW,213,3.0,3.0,60,0.00,,---,0.00,VWS V14.01,2013-02-04 16:52:00,
2013-02-04 11:57:00,30.0,17.8,30.04,SSW,213,1.0,1.0,60,0.00,,---,0.00,VWS V14.01,2013-02-04 16:57:00,
2013-02-04 12:02:00,30.2,17.6,30.03,West,280,4.0,4.0,59,0.00,,---,0.00,VWS V14.01,2013-02-04 17:02:00,
2013-02-04 12:07:00,30.1,17.9,30.03,NW,315,2.0,2.0,60,0.00,,---,0.00,VWS V14.01,2013-02-04 17:07:00,
2013-02-04 12:12:00,29.8,16.8,30.03,NW,315,2.0,3.0,58,0.00,,---,0.00,VWS V14.01,2013-02-04 17:12:00,
2013-02-04 12:17:00,30.2,18.8,30.02,WNW,299,3.0,3.0,62,0.00,,---,0.00,VWS V14.01,2013-02-04 17:17:00,
2013-02-04 12:22:00,30.6,18.0,30.02,South,178,3.0,3.0,59,0.00,,---,0.00,VWS V14.01,2013-02-04 17:22:00,
2013-02-04 12:27:00,31.0,19.1,30.02,SSW,200,0.0,1.0,61,0.00,,---,0.00,VWS V14.01,2013-02-04 17:27:00,
2013-02-04 12:32:00,31.4,20.3,30.02,SW,221,0.0,1.0,63,0.00,,---,0.00,VWS V14.01,2013-02-04 17:32:00,
2013-02-04 12:37:00,31.4,18.7,30.01,West,261,1.0,2.0,59,0.00,,---,0.00,VWS V14.01,2013-02-04 17:37:00,
2013-02-04 12:42:00,31.1,18.5,30.01,WNW,283,2.0,2.0,59,0.00,,---,0.00,VWS V14.01,2013-02-04 17:42:00,
2013-02-04 12:47:00,31.3,19.0,30.01,WSW,258,1.0,1.0,60,0.00,,---,0.00,VWS V14.01,2013-02-04 17:47:00,
2013-02-04 12:52:00,31.7,18.6,30.01,West,281,2.0,2.0,58,0.00,,---,0.00,VWS V14.01,2013-02-04 17:52:00,
2013-02-04 12:57:00,32.0,19.7,30.00,NW,306,5.0,6.0,60,0.00,,---,0.00,VWS V14.01,2013-02-04 17:57:00,
2013-02-04 13:02:00,32.1,20.6,30.00,WNW,294,3.0,3.0,62,0.00,,---,0.00,VWS V14.01,2013-02-04 18:02:00,
2013-02-04 13:07:00,32.1,19.8,30.00,SW,233,5.0,5.0,60,0.00,,---,0.00,VWS V14.01,2013-02-04 18:07:00,
2013-02-04 13:12:00,31.9,20.4,30.00,South,172,4.0,6.0,62,0.00,,---,0.00,VWS V14.01,2013-02-04 18:12:00,
2013-02-04 13:17:00,31.9,20.4,30.00,SSW,203,2.0,3.0,62,0.00,,---,0.00,VWS V14.01,2013-02-04 18:17:00,
2013-02-04 13:22:00,31.8,19.9,29.99,WNW,284,3.0,3.0,61,0.00,,---,0.00,VWS V14.01,2013-02-04 18:22:00,
2013-02-04 13:27:00,31.6,20.1,29.99,WSW,254,2.0,3.0,62,0.00,,---,0.00,VWS V14.01,2013-02-04 18:27:00,
2013-02-04 13:32:00,31.6,20.5,29.99,NW,324,4.0,5.0,63,0.00,,---,0.00,VWS V14.01,2013-02-04 18:32:00,
2013-02-04 13:37:00,31.4,20.3,29.99,WSW,241,1.0,2.0,63,0.00,,---,0.00,VWS V14.01,2013-02-04 18:37:00,
2013-02-04 13:42:00,31.5,20.7,29.98,WNW,300,0.0,0.0,64,0.00,,---,0.00,VWS V14.01,2013-02-04 18:42:00,
2013-02-04 13:47:00,31.6,21.2,29.98,NW,312,3.0,3.0,65,0.00,,---,0.00,VWS V14.01,2013-02-04 18:47:00,
2013-02-04 13:52:00,31.5,21.1,29.98,West,267,2.0,2.0,65,0.00,,---,0.00,VWS V14.01,2013-02-04 18:52:00,
2013-02-04 13:57:00,31.6,20.5,29.98,NW,306,3.0,3.0,63,0.00,,---,0.00,VWS V14.01,2013-02-04 18:57:00,
2013-02-04 14:02:00,31.7,21.3,29.98,WNW,292,1.0,1.0,65,0.00,,---,0.00,VWS V14.01,2013-02-04 19:02:00,
2013-02-04 14:07:00,32.0,21.9,29.97,West,275,0.0,0.0,66,0.00,,---,0.00,VWS V14.01,2013-02-04 19:07:00,
2013-02-04 14:12:00,32.3,21.5,29.97,NNW,340,3.0,3.0,64,0.00,,---,0.00,VWS V14.01,2013-02-04 19:12:00,
2013-02-04 14:17:00,32.3,21.5,29.97,WNW,293,2.0,2.0,64,0.00,,---,0.00,VWS V14.01,2013-02-04 19:17:00,
2013-02-04 14:22:00,32.1,21.3,29.97,WNW,294,0.0,4.0,64,0.00,,---,0.00,VWS V14.01,2013-02-04 19:22:00,
2013-02-04 14:27:00,32.2,22.1,29.97,WNW,294,2.0,2.0,66,0.00,,---,0.00,VWS V14.01,2013-02-04 19:27:00,
2013-02-04 14:32:00,32.4,22.3,29.96,WNW,294,0.0,1.0,66,0.00,,---,0.00,VWS V14.01,2013-02-04 19:32:00,
2013-02-04 14:37:00,32.3,21.5,29.96,NNW,344,4.0,6.0,64,0.00,,---,0.00,VWS V14.01,2013-02-04 19:37:00,
2013-02-04 14:42:00,32.1,22.0,29.97,NNW,340,2.0,2.0,66,0.00,,---,0.00,VWS V14.01,2013-02-04 19:42:00,
2013-02-04 14:47:00,31.8,21.8,29.97,North,5,3.0,5.0,66,0.00,,---,0.00,VWS V14.01,2013-02-04 19:47:00,
2013-02-04 14:52:00,31.7,22.0,29.96,North,5,2.0,3.0,67,0.00,,---,0.00,VWS V14.01,2013-02-04 19:52:00,
2013-02-04 14:57:00,31.7,22.0,29.96,NNE,18,0.0,2.0,67,0.00,,---,0.00,VWS V14.01,2013-02-04 19:57:00,
2013-02-04 15:02:00,31.7,22.4,29.96,NNE,18,2.0,2.0,68,0.00,,---,0.00,VWS V14.01,2013-02-04 20:02:00,
2013-02-04 15:07:00,31.7,23.0,29.97,NNE,18,1.0,1.0,70,0.00,,---,0.00,VWS V14.01,2013-02-04 20:07:00,
2013-02-04 15:12:00,31.8,22.8,29.96,North,350,4.0,5.0,69,0.00,,---,0.00,VWS V14.01,2013-02-04 20:12:00,
2013-02-04 15:17:00,31.7,23.4,29.96,NNW,338,2.0,5.0,71,0.00,,---,0.00,VWS V14.01,2013-02-04 20:17:00,
2013-02-04 15:22:00,31.5,23.9,29.96,NNW,335,3.0,4.0,73,0.00,,---,0.00,VWS V14.01,2013-02-04 20:22:00,
2013-02-04 15:27:00,31.3,24.6,29.96,NNW,335,0.0,1.0,76,0.00,,---,0.00,VWS V14.01,2013-02-04 20:27:00,
2013-02-04 15:32:00,31.2,24.8,29.96,North,351,0.0,2.0,77,0.00,,---,0.00,VWS V14.01,2013-02-04 20:32:00,
2013-02-04 15:37:00,31.1,25.0,29.96,North,351,2.0,2.0,78,0.00,,---,0.00,VWS V14.01,2013-02-04 20:37:00,
2013-02-04 15:42:00,30.8,25.1,29.96,North,351,1.0,2.0,79,0.00,,---,0.00,VWS V14.01,2013-02-04 20:42:00,
2013-02-04 15:47:00,30.9,25.8,29.96,North,360,1.0,2.0,81,0.00,,---,0.00,VWS V14.01,2013-02-04 20:47:00,
2013-02-04 15:52:00,31.0,26.2,29.96,North,360,0.0,0.0,82,0.00,,---,0.00,VWS V14.01,2013-02-04 20:52:00,
2013-02-04 15:57:00,31.0,26.5,29.95,North,360,0.0,2.0,83,0.00,,---,0.00,VWS V14.01,2013-02-04 20:57:00,
2013-02-04 16:02:00,31.0,26.7,29.95,North,360,0.0,0.0,84,0.00,,---,0.00,VWS V14.01,2013-02-04 21:02:00,
2013-02-04 16:07:00,31.0,26.7,29.95,North,360,0.0,0.0,84,0.00,,---,0.00,VWS V14.01,2013-02-04 21:07:00,
2013-02-04 16:12:00,30.8,26.8,29.95,North,360,0.0,1.0,85,0.00,,---,0.00,VWS V14.01,2013-02-04 21:12:00,
2013-02-04 16:17:00,30.5,26.8,29.95,North,360,0.0,1.0,86,0.00,,---,0.00,VWS V14.01,2013-02-04 21:17:00,
2013-02-04 16:22:00,30.3,26.9,29.95,North,360,0.0,0.0,87,0.00,,---,0.00,VWS V14.01,2013-02-04 21:22:00,
2013-02-04 16:27:00,30.2,27.1,29.95,North,360,2.0,2.0,88,0.00,,---,0.00,VWS V14.01,2013-02-04 21:27:00,
2013-02-04 16:32:00,30.1,27.0,29.95,North,360,1.0,1.0,88,0.00,,---,0.00,VWS V14.01,2013-02-04 21:32:00,
2013-02-04 16:37:00,29.9,27.1,29.95,North,360,0.0,0.0,89,0.00,,---,0.00,VWS V14.01,2013-02-04 21:37:00,
2013-02-04 16:42:00,29.8,27.2,29.94,North,360,0.0,0.0,90,0.00,,---,0.00,VWS V14.01,2013-02-04 21:42:00,
2013-02-04 16:47:00,29.9,27.3,29.94,North,360,0.0,0.0,90,0.00,,---,0.00,VWS V14.01,2013-02-04 21:47:00,
2013-02-04 16:52:00,30.0,27.4,29.94,North,360,0.0,0.0,90,0.00,,---,0.00,VWS V14.01,2013-02-04 21:52:00,
2013-02-04 16:57:00,30.0,27.7,29.94,North,360,0.0,0.0,91,0.00,,---,0.00,VWS V14.01,2013-02-04 21:57:00,
2013-02-04 17:02:00,30.1,27.8,29.94,North,360,0.0,1.0,91,0.00,,---,0.00,VWS V14.01,2013-02-04 22:02:00,
2013-02-04 17:07:00,30.0,27.7,29.94,SSE,156,2.0,3.0,91,0.00,,---,0.00,VWS V14.01,2013-02-04 22:07:00,
2013-02-04 17:12:00,29.9,27.6,29.93,SE,140,3.0,4.0,91,0.00,,---,0.00,VWS V14.01,2013-02-04 22:12:00,
2013-02-04 17:17:00,29.6,27.6,29.93,SE,136,6.0,6.0,92,0.00,,---,0.00,VWS V14.01,2013-02-04 22:17:00,
2013-02-04 17:22:00,29.3,27.3,29.93,SE,138,6.0,6.0,92,0.00,,---,0.00,VWS V14.01,2013-02-04 22:22:00,
2013-02-04 17:27:00,29.0,27.2,29.93,SE,136,4.0,6.0,93,0.00,,---,0.00,VWS V14.01,2013-02-04 22:27:00,
2013-02-04 17:32:00,28.9,27.1,29.93,SE,135,4.0,5.0,93,0.00,,---,0.00,VWS V14.01,2013-02-04 22:32:00,
2013-02-04 17:37:00,28.8,27.3,29.93,SSE,147,5.0,6.0,94,0.00,,---,0.00,VWS V14.01,2013-02-04 22:37:00,
2013-02-04 17:42:00,28.7,27.2,29.93,SSE,152,3.0,4.0,94,0.00,,---,0.00,VWS V14.01,2013-02-04 22:42:00,
2013-02-04 17:47:00,28.6,27.1,29.93,SSE,168,6.0,9.0,94,0.00,,---,0.00,VWS V14.01,2013-02-04 22:47:00,
2013-02-04 17:52:00,28.4,26.9,29.93,SSE,152,4.0,7.0,94,0.00,,---,0.00,VWS V14.01,2013-02-04 22:52:00,
2013-02-04 17:57:00,28.3,26.8,29.92,SSE,153,7.0,7.0,94,0.00,,---,0.00,VWS V14.01,2013-02-04 22:57:00,
2013-02-04 18:02:00,28.3,26.8,29.92,SE,146,5.0,6.0,94,0.00,,---,0.00,VWS V14.01,2013-02-04 23:02:00,
2013-02-04 18:07:00,28.3,27.0,29.92,SE,137,6.0,9.0,95,0.00,,---,0.00,VWS V14.01,2013-02-04 23:07:00,
2013-02-04 18:12:00,28.3,27.0,29.92,SSE,152,4.0,7.0,95,0.00,,---,0.00,VWS V14.01,2013-02-04 23:12:00,
2013-02-04 18:17:00,28.4,27.1,29.92,SSE,152,5.0,6.0,95,0.00,,---,0.00,VWS V14.01,2013-02-04 23:17:00,
2013-02-04 18:22:00,28.4,27.1,29.92,SSE,154,6.0,7.0,95,0.00,,---,0.00,VWS V14.01,2013-02-04 23:22:00,
2013-02-04 18:27:00,28.4,27.1,29.93,SE,144,5.0,5.0,95,0.00,,---,0.00,VWS V14.01,2013-02-04 23:27:00,
2013-02-04 18:32:00,28.4,27.1,29.93,SE,139,6.0,6.0,95,0.00,,---,0.00,VWS V14.01,2013-02-04 23:32:00,
2013-02-04 18:37:00,28.4,27.1,29.93,SE,137,6.0,7.0,95,0.00,,---,0.00,VWS V14.01,2013-02-04 23:37:00,
2013-02-04 18:42:00,28.3,27.0,29.93,SE,136,3.0,5.0,95,0.00,,---,0.00,VWS V14.01,2013-02-04 23:42:00,
2013-02-04 18:47:00,28.3,27.0,29.93,South,180,6.0,7.0,95,0.00,,---,0.00,VWS V14.01,2013-02-04 23:47:00,
2013-02-04 18:52:00,28.2,27.0,29.93,SSE,163,2.0,4.0,95,0.00,,---,0.00,VWS V14.01,2013-02-04 23:52:00,
2013-02-04 18:57:00,28.2,27.0,29.93,SSE,165,6.0,6.0,95,0.00,,---,0.00,VWS V14.01,2013-02-04 23:57:00,
2013-02-04 19:02:00,28.2,27.0,29.93,SE,138,2.0,3.0,95,0.00,,---,0.00,VWS V14.01,2013-02-05 00:02:00,
2013-02-04 19:07:00,28.2,27.0,29.94,South,173,1.0,4.0,95,0.00,,---,0.00,VWS V14.01,2013-02-05 00:07:00,
2013-02-04 19:12:00,28.2,27.2,29.93,SE,134,4.0,5.0,96,0.00,,---,0.00,VWS V14.01,2013-02-05 00:12:00,
2013-02-04 19:17:00,28.3,27.3,29.93,SE,132,3.0,4.0,96,0.00,,---,0.00,VWS V14.01,2013-02-05 00:17:00,
2013-02-04 19:22:00,28.3,27.3,29.93,SE,138,3.0,4.0,96,0.00,,---,0.00,VWS V14.01,2013-02-05 00:22:00,
2013-02-04 19:27:00,28.2,27.2,29.93,SE,141,4.0,4.0,96,0.00,,---,0.00,VWS V14.01,2013-02-05 00:27:00,
2013-02-04 19:32:00,28.2,27.2,29.93,SSE,156,1.0,3.0,96,0.00,,---,0.00,VWS V14.01,2013-02-05 00:32:00,
2013-02-04 19:37:00,28.2,27.2,29.93,South,175,3.0,4.0,96,0.00,,---,0.00,VWS V14.01,2013-02-05 00:37:00,
2013-02-04 19:42:00,28.2,27.2,29.93,SE,134,4.0,5.0,96,0.00,,---,0.00,VWS V14.01,2013-02-05 00:42:00,
2013-02-04 19:47:00,28.1,27.1,29.93,SE,138,0.0,3.0,96,0.00,,---,0.00,VWS V14.01,2013-02-05 00:47:00,
2013-02-04 19:52:00,28.2,27.2,29.93,South,184,0.0,1.0,96,0.00,,---,0.00,VWS V14.01,2013-02-05 00:52:00,
2013-02-04 19:57:00,28.2,27.2,29.93,SE,143,0.0,0.0,96,0.00,,---,0.00,VWS V14.01,2013-02-05 00:57:00,
2013-02-04 20:02:00,28.2,27.2,29.93,ESE,107,0.0,1.0,96,0.00,,---,0.00,VWS V14.01,2013-02-05 01:02:00,
2013-02-04 20:07:00,28.3,27.3,29.93,South,178,0.0,1.0,96,0.00,,---,0.00,VWS V14.01,2013-02-05 01:07:00,
2013-02-04 20:12:00,28.3,27.3,29.93,SSE,167,2.0,3.0,96,0.00,,---,0.00,VWS V14.01,2013-02-05 01:12:00,
2013-02-04 20:17:00,28.3,27.3,29.93,SSE,149,2.0,3.0,96,0.00,,---,0.00,VWS V14.01,2013-02-05 01:17:00,
2013-02-04 20:22:00,28.4,27.4,29.93,SE,139,0.0,1.0,96,0.00,,---,0.00,VWS V14.01,2013-02-05 01:22:00,
2013-02-04 20:27:00,28.4,27.4,29.93,SE,144,0.0,0.0,96,0.00,,---,0.00,VWS V14.01,2013-02-05 01:27:00,
2013-02-04 20:32:00,28.4,27.4,29.93,SE,144,0.0,0.0,96,0.00,,---,0.00,VWS V14.01,2013-02-05 01:32:00,
2013-02-04 20:37:00,28.4,27.4,29.93,SE,144,0.0,0.0,96,0.00,,---,0.00,VWS V14.01,2013-02-05 01:37:00,
2013-02-04 20:42:00,28.4,27.4,29.93,SE,144,1.0,2.0,96,0.00,,---,0.00,VWS V14.01,2013-02-05 01:42:00,
2013-02-04 20:47:00,28.5,27.5,29.93,SE,143,0.0,0.0,96,0.00,,---,0.00,VWS V14.01,2013-02-05 01:47:00,
2013-02-04 20:52:00,28.5,27.5,29.92,ESE,123,3.0,5.0,96,0.00,,---,0.00,VWS V14.01,2013-02-05 01:52:00,
2013-02-04 20:57:00,28.5,27.5,29.93,ESE,113,0.0,0.0,96,0.00,,---,0.00,VWS V14.01,2013-02-05 01:57:00,
2013-02-04 21:02:00,28.5,27.5,29.93,SE,132,0.0,2.0,96,0.00,,---,0.00,VWS V14.01,2013-02-05 02:02:00,
2013-02-04 21:07:00,28.5,27.5,29.93,SE,128,2.0,2.0,96,0.00,,---,0.00,VWS V14.01,2013-02-05 02:07:00,
2013-02-04 21:12:00,28.5,27.5,29.93,SE,128,0.0,0.0,96,0.00,,---,0.00,VWS V14.01,2013-02-05 02:12:00,
2013-02-04 21:17:00,28.5,27.5,29.92,SE,128,1.0,2.0,96,0.00,,---,0.00,VWS V14.01,2013-02-05 02:17:00,
2013-02-04 21:22:00,28.5,27.5,29.93,SE,128,0.0,0.0,96,0.00,,---,0.00,VWS V14.01,2013-02-05 02:22:00,
2013-02-04 21:27:00,28.5,27.5,29.92,SE,128,0.0,0.0,96,0.00,,---,0.00,VWS V14.01,2013-02-05 02:27:00,
2013-02-04 21:32:00,28.6,27.6,29.92,SE,128,0.0,0.0,96,0.00,,---,0.00,VWS V14.01,2013-02-05 02:32:00,
2013-02-04 21:37:00,28.6,27.6,29.92,SE,128,0.0,0.0,96,0.00,,---,0.00,VWS V14.01,2013-02-05 02:37:00,
2013-02-04 21:42:00,28.6,27.6,29.92,SE,128,0.0,0.0,96,0.00,,---,0.00,VWS V14.01,2013-02-05 02:42:00,
2013-02-04 21:47:00,28.7,27.7,29.92,SE,128,0.0,0.0,96,0.00,,---,0.00,VWS V14.01,2013-02-05 02:47:00,
2013-02-04 21:52:00,28.7,27.7,29.92,SE,128,0.0,0.0,96,0.00,,---,0.00,VWS V14.01,2013-02-05 02:52:00,
2013-02-04 21:57:00,28.7,27.7,29.92,SE,128,0.0,0.0,96,0.00,,---,0.00,VWS V14.01,2013-02-05 02:57:00,
2013-02-04 22:02:00,28.6,27.6,29.91,SE,128,0.0,0.0,96,0.00,,---,0.00,VWS V14.01,2013-02-05 03:02:00,
2013-02-04 22:07:00,28.6,27.6,29.91,SE,128,0.0,0.0,96,0.00,,---,0.00,VWS V14.01,2013-02-05 03:07:00,
2013-02-04 22:12:00,28.6,27.6,29.91,SE,128,0.0,0.0,96,0.00,,---,0.00,VWS V14.01,2013-02-05 03:12:00,
2013-02-04 22:17:00,28.6,27.9,29.91,SE,128,0.0,0.0,97,0.00,,---,0.00,VWS V14.01,2013-02-05 03:17:00,
2013-02-04 22:22:00,28.6,27.9,29.91,SE,128,0.0,0.0,97,0.00,,---,0.00,VWS V14.01,2013-02-05 03:22:00,
2013-02-04 22:27:00,28.7,28.0,29.91,SE,128,0.0,0.0,97,0.00,,---,0.00,VWS V14.01,2013-02-05 03:27:00,
2013-02-04 22:32:00,28.7,28.0,29.91,SE,128,0.0,0.0,97,0.00,,---,0.00,VWS V14.01,2013-02-05 03:32:00,
2013-02-04 22:37:00,28.7,28.0,29.91,SE,128,1.0,1.0,97,0.00,,---,0.00,VWS V14.01,2013-02-05 03:37:00,
2013-02-04 22:42:00,29.0,28.3,29.90,SE,128,0.0,0.0,97,0.00,,---,0.00,VWS V14.01,2013-02-05 03:42:00,
2013-02-04 22:47:00,29.2,28.5,29.91,SE,128,1.0,1.0,97,0.00,,---,0.00,VWS V14.01,2013-02-05 03:47:00,
2013-02-04 22:52:00,29.2,28.5,29.90,SE,128,0.0,1.0,97,0.00,,---,0.00,VWS V14.01,2013-02-05 03:52:00,
2013-02-04 22:57:00,29.2,28.5,29.90,SE,128,0.0,2.0,97,0.00,,---,0.00,VWS V14.01,2013-02-05 03:57:00,
2013-02-04 23:02:00,29.1,28.4,29.90,SE,129,2.0,2.0,97,0.00,,---,0.00,VWS V14.01,2013-02-05 04:02:00,
2013-02-04 23:07:00,28.9,28.2,29.90,SE,127,0.0,0.0,97,0.00,,---,0.00,VWS V14.01,2013-02-05 04:07:00,
2013-02-04 23:12:00,28.9,28.2,29.90,SE,127,0.0,1.0,97,0.00,,---,0.00,VWS V14.01,2013-02-05 04:12:00,
2013-02-04 23:17:00,28.9,28.2,29.90,NW,304,3.0,3.0,97,0.00,,---,0.00,VWS V14.01,2013-02-05 04:17:00,
2013-02-04 23:22:00,28.9,28.2,29.90,NW,304,0.0,0.0,97,0.00,,---,0.00,VWS V14.01,2013-02-05 04:22:00,
2013-02-04 23:27:00,29.3,28.6,29.90,NW,304,2.0,2.0,97,0.00,,---,0.00,VWS V14.01,2013-02-05 04:27:00,
2013-02-04 23:32:00,29.8,29.0,29.89,NW,304,0.0,0.0,97,0.00,,---,0.00,VWS V14.01,2013-02-05 04:32:00,
2013-02-04 23:37:00,30.3,29.5,29.89,NW,304,0.0,1.0,97,0.00,,---,0.00,VWS V14.01,2013-02-05 04:37:00,
2013-02-04 23:42:00,30.7,30.0,29.89,NW,304,0.0,2.0,97,0.00,,---,0.00,VWS V14.01,2013-02-05 04:42:00,
2013-02-04 23:47:00,31.1,30.6,29.89,NW,304,0.0,1.0,98,0.00,,---,0.00,VWS V14.01,2013-02-05 04:47:00,
2013-02-04 23:52:00,31.2,30.5,29.89,NW,304,0.0,1.0,97,0.00,,---,0.00,VWS V14.01,2013-02-05 04:52:00,
2013-02-04 23:57:00,31.5,31.0,29.89,NW,304,0.0,0.0,98,0.00,,---,0.00,VWS V14.01,2013-02-05 04:57:00,